﻿気象観測野帳　（高山試験地）,,,,,,,,,,,,
年,月,日,曜日,天候,最高気温[℃],最低気温[℃],気温(水銀計)[℃],気温(自記計)[℃],降水量[mm],新雪量[cm],積雪量[cm],備考
2023,1,1,日,,,,,,,,,
2023,1,2,月,,,,,,,,,
2023,1,3,火,,,,,,,,,
2023,1,4,水,雪,1.3 ,-8.5 ,-5.4 ,-5.5 ,,14.0 ,61.0 ,
2023,1,5,木,曇,3.3 ,-9.6 ,-5.8 ,-6.7 ,,5.0 ,62.0 ,
2023,1,6,金,曇,-3.5 ,-8.1 ,-3.5 ,-4.8 ,,4.0 ,60.0 ,
2023,1,7,土,,,,,,,,,
2023,1,8,日,,,,,,,,,
2023,1,9,月,,,,,,,,,
2023,1,10,火,雪,1.9 ,-8.8 ,-8.0 ,-10.9 ,,24.0 ,67.0 ,
2023,1,11,水,晴,0.7 ,-10.5 ,0.7 ,-1.8 ,,5.0 ,62.0 ,
2023,1,12,木,晴,4.1 ,-6.4 ,4.1 ,3.9 ,,0.0 ,58.0 ,
2023,1,13,金,晴,6.2 ,-3.3 ,6.2 ,6.1 ,,0.0 ,55.0 ,
2023,1,14,土,,,,,,,,,
2023,1,15,日,,,,,,,,,
2023,1,16,月,雪,6.9 ,-1.8 ,-1.6 ,-1.7 ,,1.0 ,39.0 ,
2023,1,17,火,晴,-1.6 ,-9.8 ,-5.2 ,-5.9 ,,1.0 ,38.0 ,
2023,1,18,水,雪,1.0 ,-6.4 ,-2.7 ,-3.3 ,,1.0 ,39.0 ,
2023,1,19,木,晴,-1.2 ,-9.3 ,-1.2 ,-1.9 ,,1.0 ,38.0 ,
2023,1,20,金,晴,2.0 ,-7.0 ,-1.7 ,-2.5 ,,0.0 ,36.0 ,
2023,1,21,土,,,,,,,,,
2023,1,22,日,,,,,,,,,
2023,1,23,月,曇,1.4 ,-12.5 ,-1.9 ,-2.8 ,,9.0 ,43.0 ,
2023,1,24,火,曇,2.2 ,-5.3 ,-3.9 ,-4.8 ,,0.5 ,43.0 ,
2023,1,25,水,雪,-3.0 ,-16.0 ,-13.8 ,-15.0 ,,24.0 ,63.0 ,
2023,1,26,木,雪,-6.1 ,-15.1 ,-6.1 ,-7.9 ,,8.0 ,62.0 ,
2023,1,27,金,曇,-4.8 ,-8.5 ,-6.0 ,-7.2 ,,10.0 ,64.0 ,
2023,1,28,土,,,,,,,,,
2023,1,29,日,,,,,,,,,
2023,1,30,月,雪,-3.0 ,-14.3 ,-6.2 ,-7.5 ,,19.0 ,69.0 ,
2023,1,31,火,晴,-5.1 ,-13.7 ,-6.7 ,-7.8 ,,16.0 ,74.0 ,
2023,2,1,水,曇,-2.0 ,-10.8 ,-2.0 ,-3.0 ,,0.0 ,68.0 ,
2023,2,2,木,晴,-1.9 ,-9.9 ,-6.5 ,-7.7 ,,15.0 ,74.0 ,
2023,2,3,金,晴,-5.0 ,-11.2 ,-6.0 ,-6.6 ,,0.0 ,70.0 ,
2023,2,4,土,,,,,,,,,
2023,2,5,日,,,,,,,,,
2023,2,6,月,晴,2.0 ,-9.3 ,0.4 ,0.0 ,,2.0 ,67.0 ,
2023,2,7,火,曇,4.7 ,-2.7 ,2.6 ,2.1 ,,0.0 ,65.0 ,
2023,2,8,水,曇,5.2 ,-3.3 ,0.0 ,-0.8 ,,0.0 ,60.0 ,
2023,2,9,木,晴,1.8 ,-10.5 ,-5.3 ,-6.1 ,,3.0 ,62.0 ,
2023,2,10,金,雪,-0.5 ,-10.6 ,-0.5 ,-1.0 ,,14.0 ,70.0 ,
2023,2,11,土,,,,,,,,,
2023,2,12,日,,,,,,,,,
2023,2,13,月,雨,5.0 ,-3.8 ,2.1 ,1.3 ,,9.0 ,66.0 ,
2023,2,14,火,雪,1.9 ,8.8 ,-5.2 ,-6.2 ,,4.0 ,65.0 ,
2023,2,15,水,晴,-4.2 ,-13.7 ,-8.1 ,-9.0 ,,4.0 ,65.0 ,
2023,2,16,木,晴,-6.5 ,-14.2 ,-6.5 ,-8.0 ,,3.0 ,65.0 ,
2023,2,17,金,晴,-0.9 ,-10.5 ,-1.5 ,-2.0 ,,0.0 ,63.0 ,
2023,2,18,土,,,,,,,,,
2023,2,19,日,,,,,,,,,
2023,2,20,月,雪,3.8 ,-4.4 ,-4.0 ,-5.0 ,,1.0 ,58.0 ,
2023,2,21,火,雪,-0.5 ,-11.6 ,-7.9 ,-9.7 ,,15.0 ,65.0 ,
2023,2,22,水,晴,-14.2 ,-5.0 ,-5.0 ,-5.9 ,,5.0 ,62.0 ,
2023,2,23,木,,,,,,,,,
2023,2,24,金,曇,2.8 ,-6.4 ,0.3 ,-0.6 ,,2.0 ,60.0 ,
2023,2,25,土,,,,,,,,,
2023,2,26,日,,,,,,,,,
2023,2,27,月,晴,1.0 ,-11.8 ,-1.3 ,-1.9 ,,7.0 ,64.0 ,
2023,2,28,火,晴,6.2 ,-5.2 ,3.2 ,3.1 ,,0.0 ,62.0 ,
